Temperature
19 19 19 19 19 19 19 18 18 18 18 18 18 18 18 18 18 18 18 18 18 18 18 18 18 18 18 18 18 18 18 18 18 18 18 18 18 18 18 18 18 18 17
19 19 19 19 19 19 19 18 18 18 18 18 18 18 18 18 18 18 18 18 18 18 18 18 18 18 18 18 18 18 18 18 18 18 18 18 18 18 18 18 17 17 17
19 19 19 19 19 19 19 18 18 18 18 18 18 18 18 18 18 18 18 18 18 18 18 18 18 18 18 18 18 18 18 18 18 18 18 18 18 17 17 17 17 17 17
20 19 19 19 19 19 19 19 19 18 18 18 18 18 18 18 18 18 18 18 18 18 18 18 18 18 18 18 18 18 18 18 18 18 18 18 18 17 17 17 17 17 17
20 19 19 19 19 19 19 19 18 18 18 18 18 18 18 18 18 18 18 18 18 18 18 18 18 18 18 18 18 17 17 17 17 18 18 18 18 17 17 17 17 17 17
20 20 20 19 19 19 19 19 18 18 18 18 18 18 18 18 18 18 18 18 18 18 18 18 18 18 18 18 18 17 17 17 17 17 18 18 18 18 18 18 17 17 17
20 20 20 19 19 19 19 19 19 18 18 18 18 18 18 18 18 18 18 18 18 18 18 18 18 18 18 18 18 17 17 17 17 17 17 18 18 18 18 18 17 17 17
20 20 20 19 19 19 19 19 19 19 19 18 18 18 18 18 18 18 18 18 18 18 18 18 18 18 18 18 18 17 17 17 17 17 17 18 18 18 18 18 17 17 17
20 20 20 19 19 19 19 19 19 19 19 18 18 18 18 18 18 18 18 18 18 18 18 18 18 18 18 18 18 17 17 17 17 17 18 18 18 18 18 18 18 18 17
20 20 20 19 19 19 19 19 19 19 18 18 18 18 18 18 18 18 18 18 18 18 18 18 18 18 18 18 18 18 18 18 18 18 18 18 18 18 18 18 18 18 17
20 20 19 19 19 19 19 19 19 19 19 18 18 18 18 18 18 18 18 18 18 18 18 18 18 18 18 18 18 18 18 18 18 18 18 18 18 18 18 18 18 18 17
20 19 19 19 19 19 19 19 19 19 18 18 18 18 18 18 18 18 18 18 18 18 18 18 18 18 18 18 18 18 18 18 18 18 18 18 18 18 18 18 18 18 18
20 20 20 19 19 19 19 19 19 19 18 18 18 18 18 18 18 18 18 18 18 18 18 18 18 18 18 18 18 18 18 18 18 18 18 18 18 18 18 18 18 18 18
20 20 20 19 19 19 19 19 19 19 19 18 18 18 18 18 18 18 18 18 18 18 18 18 18 18 18 18 18 18 18 18 18 18 18 18 18 18 18 18 18 18 18
20 20 20 20 20 19 19 19 19 19 19 19 18 18 18 18 18 18 18 18 18 18 18 18 18 18 18 18 18 18 18 18 18 18 18 18 18 18 18 18 18 18 18
21 20 20 20 20 19 19 19 19 19 19 19 19 18 18 18 18 18 18 18 18 18 18 18 18 18 18 18 18 18 18 18 18 18 18 18 18 18 18 18 18 18 18
21 21 20 20 20 20 19 19 19 19 19 19 19 18 18 18 18 18 18 18 18 18 18 18 18 18 18 18 18 18 18 18 18 18 18 18 18 18 18 18 18 18 18
22 21 21 20 20 20 20 19 19 19 19 19 19 19 19 18 18 18 18 18 18 18 18 18 18 18 18 18 18 18 18 18 18 18 18 18 18 18 18 18 18 18 18
22 21 21 21 20 20 20 19 19 19 19 19 19 19 19 18 18 18 18 18 18 18 18 18 18 18 18 18 18 18 18 18 18 18 18 18 18 18 18 18 18 18 18
22 22 21 21 20 20 20 19 19 19 19 19 19 19 19 19 19 18 18 18 18 18 18 18 18 18 18 18 18 18 18 18 18 18 18 18 18 18 18 18 18 18 18
22 22 21 21 21 20 20 20 19 19 19 19 19 19 19 19 19 19 18 18 18 18 18 18 18 18 18 18 18 18 18 18 18 18 18 18 18 18 18 18 18 18 18
22 22 22 21 21 20 20 20 20 19 19 19 19 19 19 19 19 19 18 18 18 18 18 18 18 18 18 18 18 18 18 18 18 18 18 18 18 18 18 18 18 18 18
23 22 22 22 21 21 20 20 20 19 19 19 19 19 19 19 19 19 19 18 18 18 18 18 18 18 18 18 18 18 18 18 18 18 18 18 18 18 18 18 18 18 17
23 23 22 22 21 21 21 20 20 20 20 20 19 19 19 19 19 19 19 19 19 18 18 18 18 18 18 18 18 18 18 18 17 18 18 18 18 18 18 18 18 17 17
23 23 22 22 22 21 21 20 20 20 20 20 20 19 19 19 19 19 19 19 19 19 19 18 18 18 18 18 18 18 18 18 18 17 17 18 18 18 18 18 18 17 17
23 23 23 22 22 21 21 21 20 20 20 20 20 20 19 19 19 19 19 19 19 18 19 18 18 18 18 18 18 18 18 18 18 18 17 17 18 18 18 17 17 17 17
Wind_Speed
2 4 9 11 12 13 14 15 17 17 18 18 18 19 19 20 20 19 18 19 19 19 19 18 18 18 17 17 17 16 16 16 16 16 16 16 16 16 16 16 15 13 15
6 7 10 11 12 13 14 14 16 17 17 17 18 18 18 19 18 18 18 18 18 18 18 17 17 16 16 16 15 15 15 15 15 15 15 14 14 14 15 14 14 12 14
8 8 10 12 13 13 14 15 16 16 17 17 17 17 17 17 17 17 17 17 17 17 17 16 16 15 15 14 14 14 14 14 14 14 13 11 12 13 14 15 14 14 14
9 9 11 13 13 14 15 15 16 16 15 15 15 16 16 16 16 16 16 16 16 16 16 15 15 14 14 13 12 12 12 12 13 12 10 10 10 13 14 14 14 13 13
7 10 13 14 14 14 15 15 15 15 15 14 15 15 15 15 15 15 15 15 15 15 15 14 13 13 12 11 11 10 10 10 11 10 9 9 10 12 13 13 13 12 12
7 10 14 15 15 15 15 14 14 14 14 14 14 14 15 15 15 15 15 14 14 14 14 13 12 12 11 10 9 8 8 7 8 8 8 9 10 12 13 13 13 12 12
8 9 13 15 15 15 14 14 14 13 13 13 13 14 14 14 14 14 14 14 14 13 13 12 11 11 9 8 8 7 6 6 7 8 8 9 11 13 13 13 12 12 12
11 9 12 14 15 14 14 13 13 13 13 13 14 14 14 14 13 13 13 13 13 13 13 12 10 9 8 7 6 5 5 6 9 8 8 10 12 13 13 13 13 12 12
10 8 8 11 13 14 13 13 12 13 12 13 13 13 13 13 12 13 12 12 12 12 12 11 10 8 6 5 5 4 4 7 8 9 9 10 12 13 13 13 13 12 12
8 7 6 8 10 10 11 12 12 12 12 12 12 12 12 12 12 12 11 11 11 11 11 10 9 7 5 4 3 3 4 6 8 8 8 10 13 13 14 13 13 12 12
8 7 6 6 8 9 9 11 11 11 11 11 10 11 10 9 9 9 9 11 11 10 10 9 8 6 4 3 2 2 3 5 8 7 8 11 14 14 14 14 13 13 12
9 8 7 7 7 8 8 9 8 8 8 8 7 8 8 7 7 8 9 10 10 10 9 8 7 6 4 2 2 1 3 5 7 7 9 13 14 14 14 14 13 13 12
11 9 8 8 8 7 5 7 6 6 6 7 7 8 8 6 6 6 5 6 7 8 6 6 5 4 3 2 2 2 3 5 6 8 10 13 14 15 15 15 14 13 13
10 9 8 8 7 7 7 6 6 5 5 5 7 9 7 4 4 4 4 5 5 5 4 4 3 4 3 4 3 3 3 5 7 8 11 14 15 15 15 15 15 14 13
10 10 9 8 8 7 6 5 6 5 6 7 8 9 9 5 4 4 4 5 5 6 5 4 3 3 3 4 4 3 3 5 7 9 10 14 15 15 15 15 15 14 14
11 10 9 9 8 7 6 5 5 6 7 7 7 9 10 8 5 5 4 4 5 6 6 5 5 3 3 3 3 3 3 4 6 8 10 13 16 16 16 16 16 15 15
11 10 10 9 8 8 7 6 5 6 7 6 7 9 10 9 7 5 4 4 5 7 6 4 4 3 2 2 3 3 3 4 6 8 9 10 12 15 16 16 16 16 16
12 11 10 10 8 7 6 5 4 5 6 6 8 8 9 9 9 6 4 4 5 5 4 3 3 2 2 2 2 2 2 3 5 7 9 10 11 11 14 17 17 17 17
13 12 10 9 9 7 6 4 4 5 4 5 7 7 8 9 9 7 4 4 5 3 3 3 3 3 2 2 2 2 2 3 3 5 6 8 10 11 11 14 16 17 17
12 12 11 9 9 7 5 3 3 3 3 4 5 6 8 8 8 7 4 4 4 3 3 2 3 2 2 2 2 1 2 3 2 3 5 6 8 10 11 11 12 14 17
11 11 11 10 9 7 4 4 3 3 3 3 4 7 8 8 8 6 4 3 4 4 4 4 2 2 1 1 1 2 3 2 2 3 3 3 5 7 9 10 10 10 11
13 12 11 11 10 8 6 5 4 4 3 3 3 4 7 8 7 6 5 4 4 4 3 4 3 2 1 2 2 1 2 4 3 3 2 3 4 4 5 9 10 10 10
13 13 13 12 10 9 8 4 3 2 1 1 2 3 4 7 7 6 6 5 4 4 4 4 4 4 3 2 3 3 3 3 3 3 2 2 2 3 3 5 8 10 11
15 13 12 12 11 9 9 7 7 6 5 5 4 4 4 5 5 6 6 5 5 4 4 4 4 4 4 3 2 2 3 4 2 2 3 2 2 3 4 4 5 7 9
14 13 12 11 11 10 9 9 8 6 5 4 3 5 5 4 4 5 5 5 5 4 4 4 4 4 4 4 3 2 2 2 2 2 3 3 2 2 3 3 2 4 7
12 12 12 11 11 10 10 9 9 8 7 6 5 6 5 4 3 4 5 5 5 4 5 4 4 4 4 4 3 3 3 3 3 3 3 3 3 3 2 2 2 3 5
Wind_Direction
138 139 115 107 105 102 100 101 100 102 105 106 109 111 112 114 115 117 118 119 120 121 121 121 120 120 120 119 119 120 121 121 122 122 122 122 122 123 120 119 116 115 118
141 136 122 114 110 108 107 108 107 105 108 110 112 115 116 117 119 120 120 121 122 123 123 121 120 121 122 121 122 123 123 123 123 124 124 125 123 123 124 124 124 125 122
130 130 124 120 116 112 111 112 111 109 109 113 116 119 120 120 121 121 123 126 127 127 126 124 123 123 124 123 125 126 126 125 124 124 122 118 120 123 128 129 130 128 126
133 131 125 123 119 115 112 113 113 113 112 114 120 122 123 124 125 126 128 129 130 129 128 128 127 127 127 127 127 126 128 129 128 126 123 123 125 128 129 131 132 133 132
129 130 130 125 121 118 115 116 116 115 115 116 120 126 128 128 128 129 130 131 132 132 133 133 131 130 130 128 127 128 131 132 136 130 130 130 130 135 135 134 134 136 136
127 131 134 131 129 126 123 122 121 120 119 120 123 127 131 132 132 131 131 132 133 133 134 134 133 133 133 132 131 129 129 132 135 130 133 140 140 141 140 138 137 137 138
134 136 137 135 134 131 129 127 126 125 123 123 127 130 132 133 134 135 134 136 137 137 138 138 139 138 139 139 135 126 122 129 131 132 137 145 149 148 145 144 143 141 139
141 140 141 140 139 137 134 133 133 131 128 126 130 134 135 136 136 139 139 140 140 140 141 141 142 143 144 141 134 125 128 134 135 137 145 151 155 154 151 149 148 146 145
140 140 142 146 144 143 140 138 137 135 133 131 131 133 136 139 140 141 141 141 141 142 143 145 148 150 149 147 143 135 137 141 142 145 151 157 159 159 157 156 156 154 155
140 143 143 148 147 148 148 146 144 143 141 138 136 135 135 139 141 143 145 145 145 146 148 151 154 155 154 157 159 153 138 135 146 151 154 164 165 166 165 164 163 163 164
147 151 152 154 156 157 159 156 152 149 148 146 143 140 137 135 139 145 151 150 150 154 156 159 162 165 170 176 184 169 136 143 151 155 164 170 171 174 172 171 170 170 170
159 167 164 164 164 168 167 157 157 155 157 156 156 147 142 145 152 153 159 162 163 165 167 171 175 181 188 205 223 183 150 159 160 169 176 176 179 181 180 177 177 178 178
164 167 168 169 167 169 160 155 161 163 166 168 168 160 153 151 158 158 163 170 174 174 176 178 184 193 195 208 226 208 186 173 172 182 185 186 188 187 185 183 183 185 186
159 163 162 160 158 162 157 160 165 171 174 174 176 171 162 157 162 168 171 174 181 184 185 188 199 209 214 225 224 214 196 181 180 183 191 194 194 192 190 190 190 192 195
154 158 161 157 155 154 150 163 166 175 176 182 178 178 173 165 170 174 180 182 191 191 189 194 207 216 227 234 231 225 200 185 184 186 191 195 197 196 196 195 196 199 200
158 159 158 155 155 152 154 158 161 173 177 178 178 178 176 174 170 169 176 183 195 198 198 196 205 199 208 211 224 219 195 191 187 188 194 199 203 202 202 202 203 205 206
163 159 159 158 156 156 160 162 159 173 176 177 182 182 180 178 174 169 169 182 195 198 195 191 194 184 190 199 216 224 210 200 191 196 197 199 205 208 208 209 211 211 211
161 161 166 163 160 161 160 155 154 169 177 182 183 187 188 183 179 169 172 193 194 186 172 172 176 172 200 207 219 238 232 206 202 198 198 201 203 209 213 216 217 217 216
165 164 166 161 163 166 162 151 147 157 177 184 180 183 187 183 180 173 178 194 188 177 179 189 178 174 189 209 229 237 238 229 216 203 197 201 202 206 210 218 220 219 220
166 164 164 163 168 164 154 142 134 146 173 179 177 182 179 181 178 171 180 192 177 169 181 183 178 177 180 196 237 266 261 248 226 206 208 204 205 208 210 213 217 222 224
166 166 167 167 172 162 155 157 160 175 180 179 186 184 182 183 180 174 178 180 172 175 183 180 170 171 188 159 87 337 326 295 250 229 216 203 205 207 207 212 214 219 226
175 175 172 174 176 174 173 171 170 169 184 186 186 184 188 186 185 183 173 179 178 171 176 182 169 162 199 160 144 122 333 331 311 261 229 205 203 202 211 218 214 215 218
181 181 180 179 178 179 171 158 146 122 116 161 191 199 199 191 193 190 179 176 178 174 183 190 180 170 190 209 172 158 172 234 287 308 278 239 206 208 222 220 215 215 217
187 183 178 178 180 180 172 171 169 176 188 203 196 197 201 194 192 189 177 176 178 179 186 197 185 176 171 196 215 207 191 177 191 295 314 293 253 233 228 229 219 210 210
185 182 179 177 180 181 180 181 181 189 195 191 185 189 198 200 194 188 181 179 184 187 192 195 182 183 182 187 193 201 214 203 186 194 272 299 304 265 230 217 201 197 198
181 179 176 177 184 183 185 185 187 189 187 181 186 191 198 200 203 203 188 182 188 191 194 194 192 188 196 197 195 190 188 192 200 191 224 256 272 276 243 205 194 195 189
Height
1513 1512 1512 1511 1511 1510 1510 1510 1510 1510 1511 1513 1515 1516 1517 1519 1520 1522 1523 1525 1527 1528 1530 1532 1534 1536 1537 1539 1541 1543 1544 1545 1546 1547 1548 1549 1550 1551 1552 1552 1553 1554 1555
1514 1513 1513 1513 1513 1512 1512 1512 1513 1513 1514 1516 1517 1518 1520 1521 1523 1524 1526 1527 1529 1530 1532 1534 1536 1538 1539 1541 1543 1544 1545 1547 1548 1549 1549 1550 1551 1552 1553 1553 1554 1555 1556
1514 1514 1514 1514 1514 1514 1514 1514 1515 1516 1517 1518 1519 1521 1522 1523 1525 1526 1528 1529 1531 1532 1534 1536 1538 1539 1541 1543 1544 1546 1547 1548 1549 1550 1551 1552 1552 1553 1554 1555 1556 1557 1557
1515 1515 1515 1515 1516 1516 1516 1516 1518 1519 1519 1520 1521 1523 1524 1525 1527 1528 1529 1531 1533 1534 1536 1538 1540 1541 1542 1544 1546 1547 1548 1549 1550 1551 1552 1553 1553 1554 1555 1556 1557 1558 1558
1516 1515 1516 1517 1517 1517 1518 1519 1520 1521 1522 1522 1523 1524 1526 1527 1529 1530 1531 1533 1534 1536 1538 1539 1541 1542 1544 1545 1547 1548 1549 1550 1551 1552 1553 1554 1554 1555 1556 1557 1558 1559 1559
1517 1517 1517 1518 1519 1519 1520 1521 1522 1522 1523 1524 1524 1525 1527 1529 1530 1532 1533 1534 1536 1537 1539 1541 1542 1544 1545 1547 1548 1549 1550 1551 1552 1553 1554 1555 1556 1556 1557 1558 1559 1559 1560
1518 1518 1519 1520 1520 1521 1522 1523 1523 1524 1524 1524 1525 1526 1528 1530 1531 1533 1534 1536 1537 1538 1540 1542 1543 1545 1546 1548 1549 1550 1551 1552 1553 1554 1555 1556 1557 1558 1558 1559 1560 1560 1561
1519 1520 1520 1521 1522 1523 1524 1524 1525 1525 1525 1525 1526 1528 1530 1531 1532 1534 1535 1537 1538 1539 1541 1543 1545 1546 1548 1549 1550 1551 1552 1553 1554 1555 1556 1557 1558 1558 1559 1560 1561 1561 1562
1521 1522 1522 1523 1524 1525 1525 1526 1527 1527 1527 1528 1528 1530 1531 1533 1534 1535 1536 1538 1539 1541 1543 1544 1546 1547 1549 1550 1551 1553 1553 1554 1555 1556 1557 1558 1558 1559 1560 1561 1561 1562 1563
1523 1523 1524 1525 1525 1526 1527 1528 1528 1529 1529 1530 1530 1532 1533 1534 1535 1536 1538 1539 1541 1542 1544 1546 1547 1548 1550 1551 1552 1553 1554 1555 1556 1557 1558 1558 1559 1560 1560 1561 1562 1562 1563
1524 1525 1525 1526 1527 1527 1528 1529 1530 1530 1531 1532 1532 1533 1534 1535 1536 1538 1539 1541 1542 1544 1545 1547 1548 1549 1551 1552 1553 1554 1555 1556 1557 1557 1558 1559 1559 1560 1560 1561 1562 1563 1564
1525 1526 1526 1527 1528 1528 1529 1530 1531 1532 1533 1533 1534 1535 1536 1537 1538 1539 1541 1542 1544 1545 1546 1548 1549 1550 1552 1553 1554 1555 1556 1556 1557 1558 1558 1559 1559 1560 1561 1561 1562 1563 1564
1525 1526 1527 1528 1529 1529 1530 1531 1532 1533 1534 1535 1535 1536 1537 1538 1539 1541 1542 1543 1545 1546 1547 1549 1550 1551 1553 1554 1555 1555 1556 1556 1557 1558 1558 1559 1559 1560 1561 1561 1562 1563 1563
1525 1526 1527 1528 1529 1530 1531 1532 1533 1534 1534 1535 1536 1537 1538 1539 1540 1542 1543 1544 1546 1547 1548 1550 1551 1552 1553 1554 1555 1555 1556 1556 1557 1557 1558 1558 1559 1559 1560 1561 1561 1562 1563
1525 1527 1528 1529 1530 1531 1532 1533 1533 1534 1535 1536 1537 1538 1539 1540 1541 1542 1543 1545 1546 1548 1549 1550 1551 1552 1553 1554 1554 1555 1555 1556 1556 1557 1557 1558 1558 1559 1559 1560 1561 1561 1562
1525 1526 1528 1529 1530 1531 1532 1533 1534 1535 1536 1536 1537 1538 1539 1540 1541 1542 1543 1545 1546 1548 1549 1550 1551 1552 1553 1554 1554 1555 1555 1555 1556 1556 1556 1557 1557 1558 1558 1559 1559 1560 1561
1525 1526 1528 1529 1530 1532 1533 1533 1534 1535 1536 1537 1538 1539 1539 1540 1542 1543 1543 1544 1546 1547 1549 1550 1551 1551 1552 1553 1553 1554 1554 1554 1555 1555 1556 1556 1556 1556 1557 1557 1558 1558 1559
1524 1526 1527 1529 1530 1532 1533 1534 1534 1535 1536 1537 1538 1539 1539 1540 1541 1542 1543 1544 1545 1547 1548 1549 1550 1551 1551 1552 1552 1553 1553 1553 1553 1554 1554 1554 1555 1555 1556 1556 1556 1557 1557
1523 1524 1526 1528 1530 1531 1533 1534 1535 1535 1536 1537 1537 1538 1539 1540 1541 1542 1543 1543 1544 1546 1547 1548 1549 1550 1550 1551 1551 1551 1551 1551 1552 1552 1552 1553 1553 1553 1554 1554 1554 1555 1555
1522 1523 1525 1527 1529 1531 1532 1533 1534 1535 1535 1536 1537 1538 1538 1539 1540 1541 1542 1542 1543 1544 1545 1546 1547 1548 1548 1549 1549 1549 1549 1549 1550 1550 1550 1550 1551 1551 1551 1552 1552 1552 1552
1521 1522 1524 1525 1527 1529 1530 1532 1533 1534 1535 1535 1536 1537 1538 1538 1539 1540 1540 1541 1542 1543 1544 1545 1545 1546 1546 1547 1548 1548 1548 1548 1548 1548 1548 1548 1549 1549 1549 1549 1550 1550 1550
1518 1520 1522 1523 1525 1527 1528 1530 1532 1533 1534 1535 1535 1536 1537 1537 1538 1539 1539 1540 1541 1542 1542 1543 1544 1544 1545 1546 1546 1546 1546 1547 1545 1545 1546 1546 1546 1546 1547 1547 1547 1547 1547
1515 1517 1519 1521 1523 1525 1527 1529 1530 1532 1533 1533 1534 1535 1536 1536 1537 1538 1538 1539 1540 1540 1541 1541 1542 1542 1542 1543 1544 1545 1544 1543 1543 1543 1543 1543 1544 1544 1544 1544 1544 1544 1545
1512 1515 1517 1519 1521 1523 1525 1526 1527 1528 1529 1531 1532 1533 1534 1535 1536 1537 1537 1538 1538 1538 1539 1539 1539 1540 1540 1541 1542 1542 1543 1542 1542 1541 1541 1541 1541 1541 1542 1542 1541 1541 1542
1510 1513 1516 1518 1520 1522 1523 1525 1526 1527 1528 1529 1530 1532 1532 1533 1534 1535 1535 1536 1536 1537 1537 1537 1537 1538 1538 1539 1539 1539 1540 1540 1540 1540 1539 1539 1539 1539 1539 1539 1539 1538 1539
1508 1511 1513 1516 1518 1519 1521 1523 1524 1525 1526 1527 1528 1529 1530 1531 1532 1533 1534 1534 1534 1535 1535 1536 1536 1536 1536 1536 1537 1537 1537 1537 1537 1537 1536 1536 1536 1536 1536 1536 1536 1536 1536